Regional Weather Roundup
Issued by NWS Charleston, SC

Current Version | Previous Version | Graphics & Text | Print | Product List | Glossary On
Versions: 1 2 3 4 5 6 7 8 9 10 11 12 13 14 15 16 17 18 19 20 21 22 23 24 25 26 27 28 29 30 31 32 33 34 35 36 37 38 39 40 41 42 43 44 45 46 47 48 49 50
000
ASUS42 KCHS 232212
RWRCHS

REGIONAL WEATHER ROUNDUP
NATIONAL WEATHER SERVICE CHARLESTON SC
600 PM EDT MON OCT 23 2017

NOTE: "FAIR" INDICATES FEW OR NO CLOUDS BELOW 12,000 FEET WITH NO
SIGNIFICANT WEATHER AND/OR OBSTRUCTIONS TO VISIBILITY.

NOT ALL STATIONS ARE QUALITY CONTROLLED. USE DATA WITH CAUTION...
ESPECIALLY DEWPOINT OBSERVATIONS.

SCZ027-030-031-034>040-042>050-232300-
...SOUTHEAST SOUTH CAROLINA...

CITY           SKY/WX    TMP DP  RH WIND       PRES   REMARKS
N CHARLESTON   CLOUDY    76  74  93 S17G28    29.86F
WATERFRONT PRK NOT AVBL
JOHNS ISLAND   HVY RAIN  77  75  94 SE13G21   29.86F VSB 3/4
PINOPOLIS        N/A     75  73  94 S5        29.78F
MONCKS CORNER  MOCLDY    73  73 100 S10G18    29.85F
SUMMERVILLE    MOCLDY    75  72  88 SE6       29.86F
BEAUFORT MCAS  LGT RAIN  78  75  90 S9        29.84F
BEAUFORT ARPT  DRIZZLE   77  73  88 S10G24    29.84F
HILTON HEAD IS DRIZZLE   77  73  88 S13G23    29.87F
WALTERBORO     CLOUDY    73  72  94 S12G24    29.83F
ALLENDALE      HVY RAIN  75  73  94 S15G23      N/A  VSB 1/2

...SOUTHERN MIDLANDS AND PEE DEE...

CITY           SKY/WX    TMP DP  RH WIND       PRES   REMARKS
GEORGETOWN     MOCLDY    77  75  94 SE16G25   29.90F
KINGSTREE      CLOUDY    72  72 100 SE12G18   29.85F
ORANGEBURG     RAIN      74  72  93 S6G18     29.81F FOG
BARNWELL         N/A     75  75 100 S7        29.81F
AIKEN          CLOUDY    66  66 100 NW5       29.85F
MANNING        DRIZZLE   73  72  94 MISG      29.83F
COLUMBIA       LGT RAIN  74  74 100 S9        29.78F FOG
SUMTER         LGT RAIN  73  70  92 S14G20    29.80F
FLORENCE       RAIN      72  72 100 SE20G29   29.85F FOG
MYRTLE BEACH   CLOUDY    77  71  82 S21       29.90F
N MYRTLE BEACH CLOUDY    78  71  79 S13G22    29.91F

$$

GAZ063-065-086>088-099>101-113>116-118-119-134>141-150-232300-
...SOUTHEAST GEORGIA...

CITY           SKY/WX    TMP DP  RH WIND       PRES   REMARKS
SAVANNAH ARPT  TSTM      78  75  90 S21G36    29.83F VSB 1/2
HUNTER AAF     TSTM      77  73  88 S20G30    29.82S FOG
FORT STEWART   CLOUDY    75  72  88 S13G24    29.84R
STATESBORO     LGT RAIN  75  69  81 W12G18    29.84R
SYLVANIA       DRIZZLE   76  76  99 SW7       29.82R
CLAXTON        LGT RAIN  74  72  94 SW3       29.85R

...CSRA...CENTRAL AND FAR SOUTHEAST GEORGIA...

CITY           SKY/WX    TMP DP  RH WIND       PRES   REMARKS
THOMSON        CLEAR     70  64  80 NW7       29.88S
AUGUSTA-BUSH   PTCLDY    73  68  84 W6        29.82S
AUGUSTA-DANIEL PTCLDY    72  67  84 VRB6      29.84S
SWAINSBORO     MOCLDY    72  72 100 MISG      29.86R
VIDALIA        PTCLDY    75  72  88 W6        29.86R
EASTMAN        FAIR      76  53  44 W8        29.90R
HAZLEHURST     FAIR      77  69  74 W3        29.85F
ALMA           PTCLDY    79  72  79 SW6       29.86S
WAYCROSS       PTCLDY    77  74  90 SW8       29.86F
JESUP          NOT AVBL
BAXLEY         MOCLDY    77  75  94 W6        29.86R
BRUNSWICK      CLOUDY    75  72  88 SW5       29.90S
SAINT SIMONS   CLOUDY    78  77  96 SW6       29.89S

$$

SCZ027-028-034-036>038-045-046-048>050-GAZ119-141-232300-
...LAKE AND SUPPLEMENTAL COASTAL OBSERVATIONS...

STATION/POSITION TIME  TEMP    WIND        PRES    WAVE   SWELL
                       AIR SEA DIR/SP/G            HT/PER HT/PER/DIR
                 (UTC) (F)     (DEG/KT/KT) (MB)    (FT/S) (FT/S/D)
WINYAH BAY       2045   77     160/ 12     1014.0
LAKE MURRAY      2120   73     160/ 17/ 25 1007.8
ACE BASIN NERRS  2045   77     150/  5     1012.0
FORT PULASKI     2148   78 74  170/ 11/ 17 1011.3F
SAPELO ISLAND    NOT AVBL

$$

ANZ835-935-AMZ111-154-330-350-352-354-370-450-454-472-232300-
...C-MAN AND BUOY OBSERVATIONS...

STATION/POSITION TIME  TEMP    WIND        PRES    WAVE   SWELL
                       AIR SEA DIR/SP/G            HT/PER HT/PER/DIR
                 (UTC) (F)     (DEG/KT/KT) (MB)    (FT/S) (FT/S/D)
BUOY 41004       2150   80     160/ 23/ 31 1012.5F   9/ 7
BUOY 41008       2050   79 77  160/ 21/ 25 1011.4    6/ 8
FOLLY BEACH CMAN 2200   77     160/ 20/ 23 1011.9F
CAPERS NEARSHORE 2108   75 73  170/ 17/ 23 1012.1F
FRIPP NEARSHORE  2108   78     170/ 16/ 21   N/A


STATION/POSITION TIME  TEMP    WIND        PRES    WAVE   SWELL
                       AIR SEA DIR/SP/G            HT/PER HT/PER/DIR
                 (UTC) (F)     (DEG/KT/KT) (MB)    (FT/S) (FT/S/D)
5E ST. MARYS GA  2130      77                N/A     5/ 6
FRYING PAN BUOY  2150   79     160/ 21/ 27 1014.6F   6/ 6
BUOY 41025       2150   79 80  150/ 21/ 25 1017.0F   6/ 6   2/100/ 9
CAPE LOOKOUT NC  2100   76     150/ 21/ 23 1015.9F
BUOY 41002       2150   78 80  130/ 17/ 19 1018.1F   5/ 5   2/100/ 8
BUOY 41010       NOT AVBL
ST AUGUSTINE FL  2200   80 79  160/ 18/ 21 1012.8S


$$



USA.gov is the U.S. government's official web portal to all federal, state and local government web resources and services.